Content
SEND FEEDBACK

Daily
Averages
Monthly
Summary
United States of America

GRANTS, NEW MEXICO


Home > North America > United States > New Mexico
Elevation: 6527 feet     Latitude: 35 09N     Longitude: 107 53W

WEATHER
 
SELECT A DAY
Number of Records: 178,226;   Date Range: 1/1/95 - 10/22/14
 
SHARE

PRINT THIS DATA

[ ← Previous Day ]
WEATHER ALMANAC - JANUARY 31, 2013
[ Next Day → ]
[ °C ]   °F
Weather ElementAverageHighLow
Temperature31.1 °F50 °F (2:55 pm)17.2 °F (6:35 am)
Dewpoint19 °F26.4 °F (10:15 am)15.1 °F (6:15 am)
Humidity66.9 %93 % (3:35 am)27 % (1:55 pm)
Barometer30.28 in30.33 in (9:35 am)30.23 in (12:35 am)
Wind Speed7.2 mph16.1 mph (11:55 am)
Wind Gust23 mph (12:55 pm)
Weather ElementAverage
Visibility10 mi
Wind DirectionWNW (308 °)

Weather ElementTotal
Precipitation---
Heating Degree Days31.4 (Base 65)
Averaged from 71 records on January 31, 2013
WEATHER CONDITIONS BREAKOUT
WIND DIRECTION BREAKOUT
WEATHER BY HOUR - JANUARY 31, 2013
[ °C ]   °F
Local TimeTemperatureDewpointHumidityBarometerVisibilityWind DirectionWind SpeedGust SpeedPrecipitationEventsConditions
12:35 AM22.1 °F18.5 °F86 %30.23 in10.0 miNW (310°)8.1 mphClear
12:55 AM22.5 °F19.0 °F87 %30.23 in10.0 miWNW (300°)8.1 mphClear
1:15 AM22.3 °F18.3 °F85 %30.23 in10.0 miWNW (300°)5.8 mphClear
1:35 AM20.8 °F18.1 °F89 %30.23 in10.0 miNW (310°)6.9 mphClear
1:55 AM20.7 °F18.5 °F91 %30.23 in10.0 miWNW (300°)8.1 mphClear
2:15 AM22.3 °F19.4 °F89 %30.23 in10.0 miWNW (300°)8.1 mphClear
2:35 AM21.7 °F18.7 °F88 %30.23 in10.0 miWNW (300°)8.1 mphClear
2:55 AM21.2 °F18.3 °F89 %30.24 in10.0 miNW (310°)4.6 mphClear
3:15 AM19.0 °F16.5 °F90 %30.24 in10.0 miNW (310°)5.8 mphClear
3:35 AM20.3 °F18.5 °F93 %30.25 in10.0 miWNW (300°)6.9 mphClear
3:55 AM21.7 °F19.0 °F89 %30.25 in10.0 miWNW (290°)9.2 mphClear
4:15 AM20.8 °F18.3 °F90 %30.25 in10.0 miWest (270°)8.1 mphClear
4:35 AM22.3 °F19.4 °F89 %30.26 in10.0 miWNW (290°)6.9 mphClear
4:55 AM21.7 °F19.0 °F89 %30.26 in10.0 miWNW (300°)4.6 mphClear
5:15 AM20.3 °F18.0 °F91 %30.26 in10.0 miWNW (290°)6.9 mphClear
5:35 AM22.1 °F19.4 °F89 %30.26 in10.0 miWNW (290°)8.1 mphClear
5:55 AM21.2 °F18.3 °F89 %30.26 in10.0 miWNW (300°)5.8 mphClear
6:15 AM17.6 °F15.1 °F90 %30.27 in10.0 miNW (310°)5.8 mphClear
6:35 AM17.2 °F15.4 °F93 %30.28 in10.0 miNW (310°)6.9 mphClear
6:55 AM18.0 °F15.8 °F91 %30.28 in10.0 miWNW (290°)5.8 mphClear
7:15 AM17.6 °F15.6 °F92 %30.29 in10.0 miWNW (300°)6.9 mphClear
7:35 AM19.2 °F17.1 °F91 %30.30 in10.0 miWNW (290°)5.8 mphClear
7:55 AM22.1 °F19.4 °F89 %30.31 in10.0 miWNW (300°)5.8 mphClear
8:15 AM23.4 °F19.9 °F87 %30.30 in10.0 miNNW (330°)5.8 mphClear
8:35 AM25.5 °F21.6 °F85 %30.31 in10.0 miNNW (340°)5.8 mphClear
8:55 AM27.9 °F23.0 °F82 %30.32 in10.0 miNW (320°)4.6 mphClear
9:15 AM29.7 °F23.9 °F79 %30.32 in10.0 miNW (310°)6.9 mphClear
9:35 AM32.0 °F24.8 °F75 %30.33 in10.0 miNW (310°)5.8 mphClear
9:55 AM33.8 °F25.5 °F72 %30.33 in10.0 miNNW (340°)6.9 mphClear
10:15 AM37.8 °F26.4 °F64 %30.32 in10.0 miNNW (340°)6.9 mphClear
10:35 AM39.2 °F25.9 °F59 %30.32 in10.0 miNorth (350°)9.2 mphClear
10:55 AM41.4 °F25.9 °F54 %30.32 in10.0 miNorth (360°)5.8 mphClear
11:15 AM43.5 °F23.5 °F45 %30.30 in10.0 miNorth (350°)10.4 mph16.1 mphClear
11:35 AM44.6 °F20.8 °F39 %30.29 in10.0 miNNW (330°)13.8 mphClear
11:55 AM44.8 °F19.6 °F37 %30.28 in10.0 miNNW (330°)16.1 mph19.6 mphClear
12:15 PM45.5 °F19.4 °F35 %30.27 in10.0 miNNW (340°)15.0 mph19.6 mphClear
12:35 PM46.6 °F18.9 °F33 %30.26 in10.0 miNNW (330°)16.1 mphClear
12:55 PM47.1 °F19.0 °F33 %30.25 in10.0 miNNW (340°)13.8 mph23.0 mphClear
1:15 PM47.8 °F19.0 °F32 %30.25 in10.0 miNNE (20°)10.4 mph19.6 mphClear
1:35 PM48.4 °F18.0 °F30 %30.25 in10.0 miNNW (340°)11.5 mph16.1 mphClear
1:55 PM48.2 °F15.8 °F27 %30.26 in10.0 miNNW (330°)6.9 mphClear
2:15 PM49.1 °F16.7 °F28 %30.27 in10.0 miNNW (340°)9.2 mphClear
2:35 PM49.5 °F17.1 °F28 %30.27 in10.0 miNorth (360°)11.5 mphClear
2:55 PM50.0 °F17.2 °F27 %30.27 in10.0 miNorth (360°)8.1 mphClear
3:15 PM49.6 °F17.1 °F27 %30.27 in10.0 miNorth (360°)6.9 mphClear
3:35 PM49.8 °F17.2 °F27 %30.27 in10.0 miNorth (350°)8.1 mphClear
3:55 PM49.5 °F17.6 °F28 %30.28 in10.0 miNNW (330°)8.1 mphClear
4:15 PM49.1 °F18.0 °F29 %30.26 in10.0 miNorth (360°)10.4 mphClear
4:35 PM47.8 °F17.4 °F30 %30.26 in10.0 miNorth (360°)8.1 mphClear
4:55 PM46.9 °F18.3 °F32 %30.26 in10.0 miNorth (360°)6.9 mphClear
5:15 PM45.5 °F18.3 °F34 %30.26 in10.0 miNorth (350°)5.8 mphClear
5:35 PM39.9 °F18.5 °F42 %30.27 in10.0 miNW (310°)3.5 mphClear
5:55 PM36.3 °F18.1 °F48 %30.27 in10.0 miWNW (300°)5.8 mphClear
6:15 PM34.7 °F19.2 °F53 %30.28 in10.0 miWNW (290°)3.5 mphClear
6:35 PM34.0 °F20.1 °F57 %30.28 in10.0 miNNW (340°)4.6 mphClear
6:55 PM32.9 °F18.9 °F56 %30.28 in10.0 miNNW (340°)5.8 mphClear
7:15 PM28.4 °F19.0 °F68 %30.28 in10.0 miNorth (350°)5.8 mphClear
7:35 PM27.7 °F19.6 °F72 %30.28 in10.0 miNNW (340°)3.5 mphClear
7:55 PM25.0 °F17.8 °F74 %30.28 in10.0 miNNW (330°)5.8 mphClear
8:15 PM28.0 °F19.9 °F72 %30.28 in10.0 miWest (280°)6.9 mphClear
8:35 PM25.9 °F19.2 °F76 %30.29 in10.0 miNNW (340°)3.5 mphClear
8:55 PM24.8 °F18.9 °F78 %30.29 in10.0 miCalmClear
9:15 PM22.6 °F16.5 °F77 %30.30 in10.0 miCalmClear
9:35 PM23.0 °F17.2 °F79 %30.30 in10.0 miNNW (330°)5.8 mphClear
9:55 PM22.6 °F17.8 °F82 %30.30 in10.0 miNNW (330°)5.8 mphClear
10:15 PM23.4 °F18.3 °F81 %30.31 in10.0 miNW (310°)8.1 mphClear
10:35 PM23.5 °F18.9 °F82 %30.30 in10.0 miNW (310°)6.9 mphClear
10:55 PM23.9 °F19.4 °F83 %30.31 in10.0 miWNW (300°)9.2 mphClear
11:15 PM22.8 °F18.1 °F82 %30.30 in10.0 miNW (320°)4.6 mphClear
11:35 PM20.3 °F16.9 °F87 %30.30 in10.0 miNW (320°)5.8 mphClear
11:55 PM19.4 °F16.0 °F87 %30.30 in10.0 miNW (320°)5.8 mphClear
Hourly data recorded from KGNT, located miles away from Grants, New Mexico







STORIES FROM OUR PARTNERS